Weather History for Moron de la Frontera, Spain

Change the Weather History Date:

Friday, November 22, 2013

  Actual Average Record
Temperature  
Mean Temperature 50 °F -  
Max Temperature 53 °F 61 °F 69 °F (2004)
Min Temperature 46 °F 43 °F 33 °F (1998)
Degree Days  
Heating Degree Days 16    
Moisture  
Dew Point 45 °F    
Average Humidity 81    
Maximum Humidity 94    
Minimum Humidity 76    
Precipitation  
Precipitation 0.00 in - - ()
Sea Level Pressure  
Sea Level Pressure 29.91 in    
Wind  
Wind Speed 4 mph ()    
Max Wind Speed 12 mph    
Max Gust Speed -    
Visibility 6.2 miles    
Events Rain    
Averages and records for this station are not official NWS values.
T = Trace of Precipitation, MM = Missing Value Source: Averaged Metar Reports

Daily Weather History Graph

Daily Weather History Graph

Search for Another Location

Airport:

Trip Planner

Search our weather history database for the weather conditions in past years. The results will help you decide how hot, cold, wet, or windy it might be!

Date:

Astronomy

Nov. 22, 2013 Rise Set
Actual Time 8:08 AM CET 6:08 PM CET
Civil Twilight 7:40 AM CET 6:36 PM CET
Nautical Twilight 7:08 AM CET 7:08 PM CET
Astronomical Twilight 6:37 AM CET 7:39 PM CET
Moon 10:25 PM CET (11/22) 11:44 AM CET (11/22)
Length of Visible Light 10h 56m
Length of Day
9h 59m
Waning Gibbous, 80% of the Moon is Illuminated
Nov 22
Waning Gibbous
Nov 25
Last Quarter
Dec 3
New
Dec 9
First Quarter
Dec 17
Full

Hourly Weather History & Observations

Time (CET) Temp. Windchill Dew Point Humidity Pressure Visibility Wind Dir Wind Speed Gust Speed Precip Events Conditions
12:00 AM 46.4 °F 45.2 °F 41.0 °F 81% 29.98 in 6.2 mi West 3.5 mph - N/A   Partly Cloudy
1:00 AM 46.4 °F 45.2 °F 41.0 °F 81% 29.95 in 6.2 mi West 3.5 mph - N/A   Partly Cloudy
2:00 AM 48.2 °F - 41.0 °F 76% 29.95 in 6.2 mi West 3.5 mph - N/A   Partly Cloudy
3:00 AM 48.2 °F - 41.0 °F 76% 29.95 in 6.2 mi West 3.5 mph - N/A   Partly Cloudy
4:00 AM 48.2 °F - 41.0 °F 76% 29.92 in 6.2 mi South 4.6 mph - N/A   Partly Cloudy
5:00 AM 50.0 °F - 42.8 °F 76% 29.92 in 6.2 mi South 2.3 mph - N/A   Partly Cloudy
6:00 AM 50.0 °F - 42.8 °F 76% 29.92 in 6.2 mi South 4.6 mph - N/A   Partly Cloudy
7:00 AM 50.0 °F - 44.6 °F 82% 29.92 in 6.2 mi South 3.5 mph - N/A   Scattered Clouds
8:00 AM 50.0 °F - 44.6 °F 82% 29.92 in 6.2 mi Calm Calm - N/A Rain Light Rain
9:00 AM 50.0 °F - 46.4 °F 87% 29.92 in 6.2 mi Variable 2.3 mph - N/A Rain Light Rain
10:00 AM 53.6 °F - 48.2 °F 82% 29.92 in 6.2 mi ESE 3.5 mph - N/A   Scattered Clouds
11:00 AM 53.6 °F - 46.4 °F 77% 29.95 in 6.2 mi ESE 4.6 mph - N/A   Mostly Cloudy
12:00 PM 53.6 °F - 48.2 °F 82% 29.92 in 6.2 mi Variable 2.3 mph - N/A   Scattered Clouds
1:00 PM 53.6 °F - 48.2 °F 82% 29.92 in 6.2 mi East 3.5 mph - N/A   Mostly Cloudy
2:00 PM 53.6 °F - 46.4 °F 77% 29.89 in 6.2 mi ENE 11.5 mph - N/A   Mostly Cloudy
3:00 PM 53.6 °F - 46.4 °F 77% 29.89 in 6.2 mi ENE 11.5 mph - N/A   Mostly Cloudy
5:00 PM 53.6 °F - 46.4 °F 77% 29.86 in 6.2 mi ENE 9.2 mph - N/A   Mostly Cloudy
6:00 PM 51.8 °F - 46.4 °F 82% 29.86 in 6.2 mi ENE 10.4 mph - N/A   Mostly Cloudy
7:00 PM 51.8 °F - 46.4 °F 82% 29.86 in 6.2 mi ENE 9.2 mph - N/A   Mostly Cloudy
8:00 PM 51.8 °F - 48.2 °F 88% 29.86 in 6.2 mi East 4.6 mph - N/A   Mostly Cloudy
9:00 PM 51.8 °F - 48.2 °F 88% 29.86 in 6.2 mi NNE 5.8 mph - N/A   Scattered Clouds
10:00 PM 51.8 °F - 48.2 °F 88% 29.89 in 6.2 mi NE 6.9 mph - N/A Rain Light Rain
11:00 PM 50.0 °F - 48.2 °F 94% 29.89 in 6.2 mi NE 5.8 mph - N/A   Mostly Cloudy